�������l�o���
Date,Time,MP-1(��Sv/h),MP-2(��Sv/h),MP-3(��Sv/h),MP-4(��Sv/h),MP-5(��Sv/h),MP-6(��Sv/h),MP-7(��Sv/h),MP-8(��Sv/h),����,����(m/s),���J
2016/11/01,00:00,1.111,1.930,1.297,2.148,1.491,0.592,1.066,0.982,���쐼,1.3,��
2016/11/01,00:10,1.111,1.925,1.298,2.147,1.493,0.592,1.065,0.981,���k��,1.4,��
2016/11/01,00:20,1.111,1.924,1.297,2.148,1.494,0.592,1.066,0.983,���쐼,1.5,��
2016/11/01,00:30,1.112,1.929,1.299,2.148,1.494,0.590,1.068,0.982,�쐼,1.1,��
2016/11/01,00:40,1.111,1.927,1.296,2.149,1.493,0.590,1.067,0.983,-,CALM,��
2016/11/01,00:50,1.114,1.927,1.297,2.149,1.494,0.591,1.066,0.982,���k��,0.7,��
2016/11/01,01:00,1.113,1.927,1.300,2.149,1.493,0.590,1.067,0.984,�k��,1.0,��
2016/11/01,01:10,1.111,1.926,1.298,2.149,1.493,0.588,1.065,0.983,-,CALM,��
2016/11/01,01:20,1.114,1.928,1.298,2.148,1.493,0.589,1.066,0.982,��쓌,0.9,��
2016/11/01,01:30,1.114,1.928,1.300,2.148,1.493,0.592,1.067,0.985,��,1.3,��
2016/11/01,01:40,1.114,1.925,1.300,2.147,1.493,0.591,1.067,0.983,�쐼,1.2,��
2016/11/01,01:50,1.110,1.927,1.298,2.151,1.492,0.590,1.066,0.983,�쐼,1.5,��
2016/11/01,02:00,1.114,1.923,1.299,2.144,1.492,0.592,1.066,0.982,���쐼,2.2,��
2016/11/01,02:10,1.111,1.930,1.298,2.147,1.494,0.590,1.065,0.983,���쐼,3.1,��
2016/11/01,02:20,1.110,1.926,1.298,2.150,1.492,0.590,1.068,0.983,�쐼,3.3,��
2016/11/01,02:30,1.112,1.928,1.297,2.146,1.494,0.590,1.065,0.983,�쐼,3.2,��
2016/11/01,02:40,1.112,1.926,1.300,2.146,1.495,0.589,1.069,0.984,�쐼,3.3,��
2016/11/01,02:50,1.113,1.926,1.298,2.150,1.494,0.590,1.067,0.982,�쐼,2.3,��
2016/11/01,03:00,1.114,1.926,1.300,2.148,1.492,0.590,1.067,0.982,��,2.0,��
2016/11/01,03:10,1.113,1.929,1.298,2.145,1.494,0.593,1.066,0.981,��,1.9,��
2016/11/01,03:20,1.112,1.928,1.299,2.149,1.492,0.591,1.065,0.983,��쐼,1.7,��
2016/11/01,03:30,1.114,1.928,1.299,2.147,1.493,0.590,1.067,0.980,���쐼,1.6,��
2016/11/01,03:40,1.111,1.930,1.298,2.149,1.492,0.589,1.067,0.983,��쐼,1.7,��
2016/11/01,03:50,1.113,1.924,1.301,2.149,1.491,0.591,1.069,0.985,��,1.5,�L
2016/11/01,04:00,1.112,1.927,1.297,2.148,1.493,0.592,1.068,0.985,�쐼,1.0,�L
2016/11/01,04:10,1.112,1.927,1.301,2.149,1.495,0.592,1.069,0.984,�쐼,1.7,�L
2016/11/01,04:20,1.114,1.926,1.299,2.149,1.492,0.593,1.067,0.984,���쐼,1.4,��
2016/11/01,04:30,1.115,1.926,1.298,2.149,1.494,0.593,1.066,0.981,���쐼,0.9,��
2016/11/01,04:40,1.114,1.928,1.300,2.150,1.494,0.594,1.067,0.984,��,1.2,�L
2016/11/01,04:50,1.112,1.928,1.301,2.152,1.492,0.591,1.067,0.984,�k��,2.1,�L
2016/11/01,05:00,1.114,1.925,1.299,2.152,1.489,0.593,1.067,0.984,�k�k��,2.8,�L
2016/11/01,05:10,1.114,1.925,1.299,2.152,1.491,0.591,1.067,0.982,�k�k��,3.6,�L
2016/11/01,05:20,1.112,1.924,1.298,2.147,1.492,0.594,1.065,0.983,�k�k��,4.9,�L
2016/11/01,05:30,1.112,1.926,1.299,2.147,1.492,0.591,1.066,0.985,�k�k��,4.7,��
2016/11/01,05:40,1.113,1.925,1.298,2.150,1.490,0.593,1.066,0.983,�k�k��,5.8,��
2016/11/01,05:50,1.110,1.924,1.299,2.147,1.490,0.592,1.068,0.984,�k�k��,4.4,�L
2016/11/01,06:00,1.111,1.921,1.298,2.147,1.488,0.593,1.065,0.982,�k,1.7,�L
2016/11/01,06:10,1.110,1.921,1.296,2.148,1.489,0.592,1.065,0.983,�k,1.1,��
2016/11/01,06:20,1.109,1.921,1.300,2.147,1.488,0.592,1.064,0.981,�k�k��,2.7,�L
2016/11/01,06:30,1.108,1.922,1.297,2.146,1.487,0.592,1.066,0.983,�k��,1.9,�L
2016/11/01,06:40,1.110,1.918,1.297,2.148,1.486,0.592,1.066,0.984,���k��,2.6,��
2016/11/01,06:50,1.109,1.920,1.296,2.145,1.485,0.591,1.065,0.981,���k��,2.3,��
2016/11/01,07:00,1.107,1.917,1.295,2.145,1.485,0.590,1.065,0.983,���쐼,1.5,��
2016/11/01,07:10,1.108,1.917,1.296,2.146,1.484,0.590,1.065,0.981,�쐼,2.2,��
2016/11/01,07:20,1.106,1.918,1.295,2.145,1.483,0.591,1.064,0.981,�쐼,2.5,��
2016/11/01,07:30,1.109,1.919,1.292,2.146,1.485,0.591,1.063,0.981,��쐼,2.7,��
2016/11/01,07:40,1.110,1.915,1.292,2.145,1.484,0.589,1.064,0.981,��쐼,3.1,��
2016/11/01,07:50,1.107,1.916,1.286,2.142,1.481,0.587,1.065,0.979,��쐼,3.1,��
2016/11/01,08:00,1.109,1.917,1.284,2.140,1.483,0.589,1.064,0.980,��쐼,2.9,��
2016/11/01,08:10,1.108,1.914,1.281,2.146,1.483,0.590,1.066,0.981,��쐼,3.3,��
2016/11/01,08:20,1.107,1.916,1.287,2.141,1.483,0.587,1.064,0.981,��쐼,3.0,��
2016/11/01,08:30,1.107,1.912,1.282,2.145,1.484,0.586,1.065,0.981,��쐼,3.0,��
2016/11/01,08:40,1.105,1.917,1.282,2.144,1.484,0.586,1.063,0.982,��쐼,2.8,��
2016/11/01,08:50,1.106,1.917,1.284,2.143,1.483,0.590,1.064,0.980,��,2.7,��
2016/11/01,09:00,1.109,1.920,1.292,2.145,1.484,0.589,1.065,0.982,��,2.3,��
2016/11/01,09:10,1.108,1.916,1.296,2.147,1.484,0.590,1.067,0.981,��쓌,1.7,��
2016/11/01,09:20,1.106,1.918,1.293,2.145,1.484,0.589,1.063,0.981,-,CALM,��
2016/11/01,09:30,1.107,1.919,1.294,2.145,1.484,0.590,1.065,0.980,�k�k��,1.2,��
2016/11/01,09:40,1.108,1.917,1.295,2.145,1.485,0.588,1.066,0.981,�k��,2.1,��
2016/11/01,09:50,1.107,1.911,1.295,2.147,1.486,0.588,1.064,0.980,�k�k��,2.7,��
2016/11/01,10:00,1.109,1.915,1.295,2.146,1.487,0.588,1.064,0.982,�k�k��,3.0,��
2016/11/01,10:10,1.111,1.917,1.296,2.146,1.485,0.589,1.065,0.981,�k,2.0,��
2016/11/01,10:20,1.109,1.914,1.293,2.145,1.485,0.588,1.063,0.984,�k,2.5,��
2016/11/01,10:30,1.109,1.915,1.293,2.148,1.488,0.591,1.065,0.982,�k�k��,3.5,��
2016/11/01,10:40,1.108,1.918,1.294,2.147,1.485,0.591,1.064,0.982,�k�k��,2.8,��
2016/11/01,10:50,1.109,1.914,1.296,2.148,1.484,0.591,1.067,0.983,�k,2.3,��
2016/11/01,11:00,1.106,1.916,1.297,2.148,1.486,0.589,1.066,0.981,�k,2.4,��
2016/11/01,11:10,1.108,1.923,1.297,2.148,1.486,0.589,1.066,0.984,�k�k��,3.4,��
2016/11/01,11:20,1.108,1.920,1.298,2.146,1.486,0.587,1.065,0.982,�k�k��,3.5,��
2016/11/01,11:30,1.108,1.919,1.299,2.147,1.490,0.590,1.063,0.984,�k�k��,4.2,��
2016/11/01,11:40,1.111,1.920,1.298,2.150,1.486,0.591,1.066,0.983,�k�k��,4.4,��
2016/11/01,11:50,1.108,1.918,1.293,2.147,1.488,0.592,1.066,0.981,�k�k��,3.8,��
2016/11/01,12:00,1.110,1.920,1.299,2.147,1.489,0.590,1.065,0.983,�k�k��,3.5,��
2016/11/01,12:10,1.110,1.924,1.298,2.151,1.489,0.591,1.068,0.983,�k�k��,3.6,��
2016/11/01,12:20,1.110,1.924,1.294,2.151,1.494,0.589,1.067,0.982,�k�k��,2.8,��
2016/11/01,12:30,1.112,1.919,1.297,2.150,1.493,0.590,1.066,0.983,�k,3.9,��
2016/11/01,12:40,1.112,1.922,1.299,2.150,1.487,0.591,1.066,0.985,�k�k��,4.7,��
2016/11/01,12:50,1.111,1.922,1.299,2.149,1.490,0.591,1.067,0.982,�k�k��,4.5,��
2016/11/01,13:00,1.111,1.917,1.298,2.151,1.490,0.591,1.067,0.983,�k�k��,5.6,��
2016/11/01,13:10,1.108,1.919,1.296,2.150,1.491,0.590,1.066,0.981,�k�k��,6.6,��
2016/11/01,13:20,1.111,1.914,1.299,2.153,1.490,0.589,1.067,0.979,�k,8.0,��
2016/11/01,13:30,1.110,1.917,1.295,2.153,1.489,0.589,1.066,0.980,�k,6.6,��
2016/11/01,13:40,1.110,1.913,1.294,2.155,1.490,0.589,1.065,0.982,�k,7.8,��
2016/11/01,13:50,1.110,1.918,1.292,2.154,1.488,0.590,1.067,0.982,�k,5.5,��
2016/11/01,14:00,1.109,1.922,1.293,2.151,1.489,0.590,1.065,0.979,�k�k��,6.0,�L
2016/11/01,14:10,1.106,1.920,1.293,2.151,1.492,0.591,1.066,0.981,�k,7.7,��
2016/11/01,14:20,1.108,1.917,1.295,2.150,1.491,0.590,1.067,0.981,�k,8.3,��
2016/11/01,14:30,1.108,1.913,1.294,2.149,1.490,0.591,1.066,0.978,�k,10.0,�L
2016/11/01,14:40,1.108,1.919,1.291,2.152,1.489,0.591,1.065,0.977,�k,12.5,�L
2016/11/01,14:50,1.107,1.915,1.289,2.149,1.489,0.590,1.063,0.978,�k,13.0,�L
2016/11/01,15:00,1.107,1.909,1.295,2.150,1.486,0.589,1.064,0.980,�k�k��,14.6,�L
2016/11/01,15:10,1.107,1.912,1.296,2.150,1.484,0.591,1.062,0.979,�k,11.4,��
2016/11/01,15:20,1.105,1.915,1.296,2.144,1.482,0.590,1.064,0.980,�k,10.5,��
2016/11/01,15:30,1.107,1.913,1.296,2.148,1.485,0.590,1.062,0.978,�k,10.2,�L
2016/11/01,15:40,1.107,1.918,1.297,2.149,1.486,0.589,1.062,0.978,�k�k��,5.8,��
2016/11/01,15:50,1.108,1.919,1.295,2.145,1.486,0.589,1.062,0.982,�k�k��,6.6,�L
2016/11/01,16:00,1.106,1.913,1.297,2.147,1.490,0.588,1.064,0.980,�k�k��,10.5,�L
2016/11/01,16:10,1.106,1.916,1.294,2.145,1.490,0.587,1.060,0.982,�k�k��,10.2,��
2016/11/01,16:20,1.104,1.916,1.292,2.144,1.486,0.590,1.064,0.980,�k�k��,8.9,�L
2016/11/01,16:30,1.103,1.917,1.291,2.141,1.486,0.589,1.063,0.981,�k�k��,10.4,�L
2016/11/01,16:40,1.101,1.915,1.291,2.142,1.485,0.589,1.061,0.982,�k�k��,9.7,��
2016/11/01,16:50,1.099,1.914,1.292,2.142,1.482,0.590,1.060,0.981,�k�k��,9.6,��
2016/11/01,17:00,1.101,1.913,1.290,2.140,1.485,0.590,1.062,0.979,�k�k��,10.8,��
2016/11/01,17:10,1.100,1.912,1.291,2.141,1.485,0.588,1.062,0.980,�k�k��,11.2,��
2016/11/01,17:20,1.101,1.911,1.293,2.141,1.483,0.587,1.061,0.980,�k�k��,9.7,��
2016/11/01,17:30,1.099,1.916,1.288,2.140,1.480,0.588,1.063,0.981,�k�k��,9.6,��
2016/11/01,17:40,1.101,1.913,1.292,2.141,1.483,0.585,1.061,0.979,�k�k��,10.2,��
2016/11/01,17:50,1.097,1.911,1.289,2.139,1.481,0.587,1.060,0.980,�k�k��,7.2,��
2016/11/01,18:00,1.100,1.913,1.291,2.140,1.481,0.587,1.061,0.979,�k�k��,6.9,��
2016/11/01,18:10,1.097,1.908,1.288,2.139,1.481,0.587,1.063,0.979,�k�k��,6.3,��
2016/11/01,18:20,1.095,1.914,1.288,2.143,1.481,0.588,1.064,0.978,�k�k��,7.5,��
2016/11/01,18:30,1.096,1.908,1.289,2.142,1.479,0.585,1.062,0.978,�k�k��,7.4,��
2016/11/01,18:40,1.098,1.909,1.289,2.143,1.481,0.585,1.060,0.978,�k�k��,8.3,��
2016/11/01,18:50,1.098,1.912,1.288,2.139,1.482,0.584,1.063,0.982,�k,9.9,��
2016/11/01,19:00,1.096,1.911,1.290,2.138,1.481,0.586,1.064,0.979,�k,11.1,��
2016/11/01,19:10,1.094,1.912,1.288,2.138,1.481,0.586,1.062,0.980,�k,10.2,��
2016/11/01,19:20,1.096,1.912,1.288,2.142,1.478,0.585,1.063,0.978,�k�k��,7.4,��
2016/11/01,19:30,1.097,1.911,1.290,2.139,1.479,0.585,1.064,0.979,�k�k��,7.4,��
2016/11/01,19:40,1.097,1.911,1.288,2.142,1.481,0.585,1.064,0.979,�k�k��,8.0,��
2016/11/01,19:50,1.096,1.912,1.290,2.142,1.480,0.587,1.063,0.979,�k�k��,8.6,��
2016/11/01,20:00,1.097,1.911,1.290,2.140,1.482,0.587,1.064,0.979,�k�k��,8.3,��
2016/11/01,20:10,1.097,1.912,1.289,2.142,1.482,0.586,1.063,0.980,�k�k��,7.5,��
2016/11/01,20:20,1.097,1.912,1.291,2.141,1.480,0.584,1.064,0.980,�k�k��,8.3,��
2016/11/01,20:30,1.098,1.909,1.287,2.141,1.479,0.586,1.064,0.978,�k�k��,7.4,��
2016/11/01,20:40,1.097,1.912,1.291,2.142,1.483,0.585,1.064,0.980,�k,6.0,��
2016/11/01,20:50,1.096,1.909,1.287,2.140,1.478,0.587,1.063,0.981,�k,4.9,��
2016/11/01,21:00,1.097,1.910,1.289,2.141,1.481,0.586,1.064,0.980,�k,6.3,��
2016/11/01,21:10,1.097,1.911,1.289,2.138,1.477,0.586,1.062,0.981,�k,7.2,��
2016/11/01,21:20,1.098,1.909,1.288,2.139,1.477,0.585,1.062,0.979,�k,6.3,��
2016/11/01,21:30,1.097,1.914,1.289,2.141,1.481,0.584,1.064,0.979,�k,5.3,��
2016/11/01,21:40,1.095,1.912,1.291,2.140,1.481,0.585,1.063,0.980,�k,5.5,��
2016/11/01,21:50,1.099,1.913,1.288,2.140,1.481,0.586,1.062,0.981,�k,4.4,��
2016/11/01,22:00,1.096,1.909,1.287,2.138,1.481,0.587,1.059,0.981,�k�k��,4.4,��
2016/11/01,22:10,1.096,1.910,1.286,2.138,1.480,0.586,1.062,0.980,�k�k��,3.8,��
2016/11/01,22:20,1.098,1.911,1.288,2.137,1.480,0.585,1.063,0.978,�k�k��,3.4,��
2016/11/01,22:30,1.095,1.909,1.288,2.137,1.479,0.585,1.062,0.980,�k�k��,3.3,��
2016/11/01,22:40,1.097,1.909,1.286,2.137,1.480,0.587,1.062,0.979,�k,3.3,��
2016/11/01,22:50,1.095,1.909,1.287,2.136,1.480,0.586,1.062,0.978,�k,3.9,��
2016/11/01,23:00,1.093,1.909,1.287,2.138,1.477,0.586,1.061,0.979,�k�k��,3.4,��
2016/11/01,23:10,1.096,1.910,1.289,2.135,1.483,0.586,1.063,0.980,�k�k��,4.2,��
2016/11/01,23:20,1.095,1.908,1.287,2.136,1.480,0.584,1.063,0.979,�k�k��,4.5,��
2016/11/01,23:30,1.095,1.906,1.286,2.140,1.480,0.587,1.060,0.980,�k�k��,4.7,��
2016/11/01,23:40,1.096,1.909,1.288,2.137,1.478,0.586,1.063,0.979,�k�k��,4.5,��
2016/11/01,23:50,1.095,1.908,1.286,2.137,1.480,0.584,1.062,0.978,�k�k��,3.9,��
